�N����,����,�~����,�C��,���x,�C��,����,���ϕ���,�ő�u�ԕ���,�ő厞����,���˗�,�I�_���x,�n�����x,�ő啗���N��,DTYPE
"17/02/24","00:10",0.0,5.3,84.7,1006.7,316.9,3.2,4.0,333.3,0.00,3.0,7.0,"00:00:24",1
"17/02/24","00:20",0.0,5.6,84.6,1006.7,318.3,3.7,6.0,316.0,0.00,3.3,7.1,"00:13:12",1
"17/02/24","00:30",0.0,5.6,84.8,1006.7,307.6,3.6,5.2,316.4,0.00,3.3,7.2,"00:28:32",1
"17/02/24","00:40",0.0,5.4,85.6,1006.7,310.9,3.2,4.5,326.1,0.00,3.2,7.0,"00:36:16",1
"17/02/24","00:50",0.0,5.3,86.1,1006.4,303.0,2.3,3.3,336.1,0.00,3.2,7.2,"00:48:48",1
"17/02/24","01:00",0.0,5.3,85.6,1006.7,321.7,3.4,6.0,330.1,0.00,3.1,6.9,"00:55:28",1
"17/02/24","01:10",0.0,5.3,84.4,1007.4,317.3,4.2,6.3,321.1,0.00,2.9,7.0,"01:06:24",1
"17/02/24","01:20",0.0,5.2,83.1,1007.1,328.7,4.5,7.2,318.2,0.00,2.6,6.9,"01:14:56",1
"17/02/24","01:30",0.0,5.0,82.4,1007.4,329.2,4.1,6.6,338.9,0.00,2.3,7.0,"01:20:24",1
"17/02/24","01:40",0.0,4.9,82.3,1007.6,324.6,3.5,5.2,307.8,0.00,2.2,7.1,"01:31:36",1
"17/02/24","01:50",0.0,4.7,82.2,1007.6,316.6,3.9,7.4,314.1,0.00,2.0,6.7,"01:46:08",1
"17/02/24","02:00",0.0,4.6,82.6,1007.6,318.6,4.4,7.8,327.6,0.00,1.9,6.9,"01:55:28",1
"17/02/24","02:10",0.0,4.5,82.2,1007.6,317.1,4.4,8.3,311.6,0.00,1.8,6.6,"02:08:48",1
"17/02/24","02:20",0.0,4.6,81.3,1008.1,326.1,4.4,7.0,305.7,0.00,1.7,6.7,"02:12:56",1
"17/02/24","02:30",0.0,4.5,81.4,1008.6,322.3,4.0,5.9,328.3,0.00,1.6,6.7,"02:28:08",1
"17/02/24","02:40",0.0,4.4,80.6,1008.8,313.7,4.7,7.4,308.8,0.00,1.4,6.7,"02:35:12",1
"17/02/24","02:50",0.0,4.3,80.4,1008.8,322.3,4.5,8.2,318.9,0.00,1.3,6.7,"02:41:52",1
"17/02/24","03:00",0.0,4.3,80.5,1008.8,324.6,4.0,5.9,327.0,0.00,1.3,6.3,"02:53:36",1
"17/02/24","03:10",0.0,4.1,81.4,1009.0,326.6,4.4,7.9,328.8,0.00,1.2,6.4,"03:04:40",1
"17/02/24","03:20",0.0,3.9,81.8,1009.0,336.5,4.6,7.1,331.3,0.00,1.1,6.5,"03:16:00",1
"17/02/24","03:30",0.0,3.8,81.4,1008.8,326.9,4.5,8.9,318.5,0.00,1.0,6.4,"03:22:48",1
"17/02/24","03:40",0.0,3.8,80.0,1009.3,330.0,5.1,9.6,344.2,0.00,0.7,6.5,"03:35:36",1
"17/02/24","03:50",0.0,3.8,79.3,1009.0,328.7,4.7,8.1,346.1,0.00,0.6,6.1,"03:45:12",1
"17/02/24","04:00",0.0,3.7,79.7,1009.3,335.1,4.6,7.3,342.9,0.00,0.6,6.4,"03:56:48",1
"17/02/24","04:10",0.0,3.6,80.2,1009.0,328.4,4.6,7.4,315.2,0.00,0.6,6.2,"04:09:20",1
"17/02/24","04:20",0.0,3.5,80.0,1009.5,330.6,5.1,11.4,329.3,0.00,0.4,6.2,"04:12:32",1
"17/02/24","04:30",0.0,3.3,80.6,1009.5,333.1,3.4,6.5,335.9,0.00,0.3,6.2,"04:25:04",1
"17/02/24","04:40",0.0,3.2,80.8,1009.5,333.1,4.1,7.7,334.4,0.00,0.3,6.0,"04:33:44",1
"17/02/24","04:50",0.0,3.1,80.6,1009.7,341.2,4.1,8.2,343.5,0.00,0.1,6.1,"04:48:32",1
"17/02/24","05:00",0.0,3.0,80.6,1010.0,339.3,3.7,7.5,341.5,0.00,0.0,6.1,"04:53:44",1
"17/02/24","05:10",0.0,3.0,80.1,1009.7,342.7,3.1,5.1,348.3,0.00,-0.1,5.8,"05:07:04",1
"17/02/24","05:20",0.0,2.9,80.0,1010.2,348.2,2.8,6.2,39.8,0.00,-0.2,5.7,"05:16:00",1
"17/02/24","05:30",0.0,2.8,80.3,1010.0,335.4,2.7,6.2,337.1,0.00,-0.2,5.7,"05:21:28",1
"17/02/24","05:40",0.0,2.8,80.6,1010.0,333.0,3.2,8.2,330.0,0.00,-0.2,5.6,"05:31:44",1
"17/02/24","05:50",0.0,2.7,80.4,1010.0,332.3,4.1,7.9,328.9,0.00,-0.3,5.7,"05:40:42",1
"17/02/24","06:00",0.0,2.8,78.8,1010.2,329.3,3.4,7.1,0.2,0.00,-0.5,5.8,"05:50:32",1
"17/02/24","06:10",0.0,2.8,78.3,1010.4,306.2,2.3,4.4,247.8,0.00,-0.6,5.7,"06:06:56",1
"17/02/24","06:20",0.0,2.7,77.2,1010.7,299.9,2.8,5.9,331.6,0.00,-0.8,5.6,"06:10:56",1
"17/02/24","06:30",0.0,2.5,77.9,1010.4,325.6,2.7,4.9,327.4,0.00,-0.9,5.5,"06:27:28",1
"17/02/24","06:40",0.0,2.5,78.0,1010.7,321.9,2.8,7.8,327.0,0.00,-0.9,5.7,"06:34:32",1
"17/02/24","06:50",0.0,2.5,77.5,1010.4,305.1,3.0,5.9,320.5,0.00,-1.0,5.7,"06:48:16",1
"17/02/24","07:00",0.0,2.5,77.3,1010.4,318.7,3.0,4.5,310.7,0.00,-1.0,5.5,"06:51:36",1
"17/02/24","07:10",0.0,2.1,78.9,1010.7,323.0,3.0,4.0,323.6,0.00,-1.1,5.4,"07:01:12",1
"17/02/24","07:20",0.0,2.2,80.3,1010.4,307.8,1.5,2.8,334.0,0.00,-0.8,5.5,"07:10:24",1
"17/02/24","07:30",0.0,2.8,79.5,1010.7,276.0,1.6,3.1,311.3,0.01,-0.3,5.4,"07:25:44",1
"17/02/24","07:40",0.0,3.2,78.7,1010.9,295.9,1.8,2.9,311.6,0.02,-0.1,5.6,"07:38:32",1
"17/02/24","07:50",0.0,3.5,78.5,1011.2,301.1,2.1,4.1,324.2,0.04,0.2,5.6,"07:45:20",1
"17/02/24","08:00",0.0,4.1,76.8,1011.9,296.2,1.2,2.6,314.8,0.06,0.4,5.5,"07:52:16",1
"17/02/24","08:10",0.0,4.5,72.7,1011.6,320.9,1.1,2.9,340.7,0.07,0.1,5.3,"08:09:36",1
"17/02/24","08:20",0.0,4.5,72.7,1012.1,322.9,3.4,5.5,339.5,0.10,0.1,5.6,"08:14:56",1
"17/02/24","08:30",0.0,5.0,70.7,1012.3,325.9,2.2,3.6,291.6,0.13,0.2,5.6,"08:20:08",1
"17/02/24","08:40",0.0,5.1,67.7,1012.8,347.3,1.8,4.0,359.3,0.15,-0.3,5.9,"08:33:38",1
"17/02/24","08:50",0.0,5.1,69.3,1012.8,341.8,3.5,7.9,349.1,0.18,0.0,5.7,"08:44:04",1
"17/02/24","09:00",0.0,5.3,67.5,1012.8,353.6,3.0,6.7,340.3,0.23,-0.2,6.1,"08:54:54",1
"17/02/24","09:10",0.0,5.6,65.2,1012.6,342.1,3.6,5.4,336.2,0.25,-0.4,6.0,"09:04:06",1
"17/02/24","09:20",0.0,5.6,67.1,1012.8,353.0,3.4,10.1,339.5,0.24,0.0,6.2,"09:19:46",1
"17/02/24","09:30",0.0,4.6,69.4,1012.6,348.9,4.1,6.8,348.0,0.12,-0.5,6.3,"09:23:12",1
"17/02/24","09:40",0.0,4.9,69.3,1012.8,327.9,4.1,7.0,342.6,0.15,-0.2,6.3,"09:39:22",1
"17/02/24","09:50",0.0,5.0,70.8,1012.6,341.4,3.4,5.7,339.2,0.16,0.2,6.4,"09:49:00",1
"17/02/24","10:00",0.0,5.3,67.1,1012.6,336.8,3.5,7.1,318.9,0.18,-0.3,6.4,"09:50:28",1
"17/02/24","10:10",0.0,5.3,65.1,1012.6,341.6,4.1,8.1,334.5,0.16,-0.7,6.6,"10:09:36",1
"17/02/24","10:20",0.0,5.5,65.3,1012.3,337.0,4.6,8.5,338.8,0.21,-0.4,6.6,"10:15:38",1
"17/02/24","10:30",0.0,6.7,63.7,1012.8,336.1,3.7,5.6,318.0,0.39,0.4,6.7,"10:25:36",1
"17/02/24","10:40",0.0,6.8,62.1,1012.8,329.8,3.7,6.5,344.2,0.39,0.1,6.7,"10:34:46",1
"17/02/24","10:50",0.0,6.3,63.0,1013.0,341.9,3.0,6.0,328.7,0.28,-0.2,6.8,"10:43:22",1
"17/02/24","11:00",0.0,6.7,60.6,1012.8,322.3,3.2,6.4,322.5,0.32,-0.3,7.0,"10:54:50",1
"17/02/24","11:10",0.0,6.8,61.3,1012.8,330.7,3.4,5.4,332.6,0.27,-0.1,7.3,"11:05:08",1
"17/02/24","11:20",0.0,6.0,61.7,1013.0,354.4,2.7,6.6,332.9,0.15,-0.7,7.4,"11:16:40",1
"17/02/24","11:30",0.0,6.2,57.7,1013.0,339.7,3.2,5.9,4.9,0.19,-1.5,7.2,"11:28:24",1
"17/02/24","11:40",0.0,6.6,58.5,1012.8,323.3,3.4,7.9,322.8,0.22,-0.9,7.3,"11:30:56",1
"17/02/24","11:50",0.0,6.7,59.2,1013.0,349.6,3.1,5.8,336.4,0.25,-0.7,7.6,"11:46:24",1
"17/02/24","12:00",0.0,6.3,59.6,1012.8,352.8,3.4,7.4,323.8,0.17,-0.9,7.6,"11:57:24",1
"17/02/24","12:10",0.0,6.2,61.3,1012.6,341.9,4.1,7.3,329.7,0.16,-0.6,7.3,"12:05:48",1
"17/02/24","12:20",0.0,6.5,61.5,1012.6,354.5,3.6,6.4,7.3,0.25,-0.3,7.9,"12:11:14",1
"17/02/24","12:30",0.0,6.9,61.9,1012.3,344.3,3.5,6.8,342.6,0.31,0.1,7.7,"12:27:38",1
"17/02/24","12:40",0.0,6.6,59.9,1012.1,336.0,3.2,6.0,353.5,0.23,-0.6,7.7,"12:38:00",1
"17/02/24","12:50",0.0,7.2,58.2,1011.9,320.6,3.5,6.4,332.3,0.28,-0.4,7.8,"12:48:16",1
"17/02/24","13:00",0.0,7.6,54.8,1011.9,320.5,2.5,5.2,318.7,0.29,-0.9,7.8,"12:59:32",1
"17/02/24","13:10",0.0,6.8,60.9,1011.9,338.1,3.2,5.0,319.7,0.07,-0.2,8.0,"13:01:52",1
"17/02/24","13:20",0.0,6.7,61.3,1011.9,350.6,3.1,7.0,337.4,0.22,-0.2,8.0,"13:14:00",1
"17/02/24","13:30",0.0,6.9,57.5,1011.9,334.3,3.2,6.5,345.0,0.24,-0.9,7.8,"13:23:52",1
"17/02/24","13:40",0.0,8.1,53.9,1011.6,305.4,3.4,7.1,330.1,0.43,-0.6,8.1,"13:37:44",1
"17/02/24","13:50",0.0,6.9,59.0,1011.6,343.7,3.6,6.7,342.1,0.20,-0.5,8.2,"13:46:34",1
"17/02/24","14:00",0.0,6.6,62.1,1011.6,345.9,3.7,6.0,348.2,0.15,-0.1,8.4,"13:52:56",1
"17/02/24","14:10",0.0,6.6,59.7,1012.1,338.5,3.6,8.0,342.9,0.20,-0.6,8.3,"14:08:18",1
"17/02/24","14:20",0.0,8.2,55.6,1011.6,339.5,3.4,5.4,338.5,0.45,-0.1,8.4,"14:14:08",1
"17/02/24","14:30",0.0,8.0,57.3,1012.1,341.7,2.3,5.6,318.4,0.37,0.1,8.2,"14:28:40",1
"17/02/24","14:40",0.0,7.2,58.6,1011.9,339.8,3.5,6.5,321.0,0.07,-0.3,8.3,"14:37:04",1
"17/02/24","14:50",0.0,7.1,61.5,1011.9,333.0,4.0,7.1,341.7,0.18,0.2,8.4,"14:41:52",1
"17/02/24","15:00",0.0,8.1,56.3,1011.9,340.0,3.2,6.4,334.1,0.37,0.0,8.5,"14:56:44",1
"17/02/24","15:10",0.0,7.1,56.7,1012.1,349.9,2.7,5.0,327.0,0.12,-0.9,8.6,"15:06:24",1
"17/02/24","15:20",0.0,6.9,58.9,1012.1,335.7,3.2,5.1,324.3,0.07,-0.5,8.5,"15:17:28",1
"17/02/24","15:30",0.0,7.0,59.6,1012.1,333.0,3.1,5.4,319.7,0.09,-0.3,8.4,"15:22:00",1
"17/02/24","15:40",0.0,6.6,60.5,1012.1,346.5,3.2,8.5,336.0,0.06,-0.5,8.5,"15:38:16",1
"17/02/24","15:50",0.0,6.3,63.1,1012.3,338.3,4.5,7.4,343.4,0.07,-0.2,8.3,"15:46:58",1
"17/02/24","16:00",0.0,6.3,62.8,1011.9,325.2,3.5,5.5,332.2,0.08,-0.2,8.2,"15:54:26",1
"17/02/24","16:10",0.0,6.5,61.8,1011.9,308.3,2.3,3.6,324.5,0.07,-0.3,8.5,"16:09:36",1
"17/02/24","16:20",0.0,6.7,61.0,1012.3,322.4,2.7,4.5,310.3,0.07,-0.2,8.3,"16:14:56",1
"17/02/24","16:30",0.0,7.2,60.6,1012.3,329.9,2.1,4.4,338.3,0.13,0.1,8.2,"16:28:40",1
"17/02/24","16:40",0.0,7.1,60.3,1012.1,326.4,2.2,3.9,332.9,0.07,0.0,8.3,"16:33:20",1
"17/02/24","16:50",0.0,6.7,60.3,1012.1,301.0,2.0,4.4,352.5,0.03,-0.4,8.2,"16:49:52",1
"17/02/24","17:00",0.0,6.5,62.3,1011.9,329.9,3.5,5.2,347.8,0.05,-0.1,8.2,"16:51:04",1
"17/02/24","17:10",0.0,6.6,63.3,1011.9,336.1,3.0,4.9,337.8,0.05,0.2,7.9,"17:01:36",1
"17/02/24","17:20",0.0,6.4,63.4,1012.1,334.5,3.2,5.9,333.1,0.03,0.0,7.9,"17:18:24",1
"17/02/24","17:30",0.0,6.0,62.8,1012.3,341.0,2.7,4.5,353.4,0.01,-0.5,8.0,"17:22:56",1
"17/02/24","17:40",0.0,5.5,63.3,1012.3,341.3,3.0,5.5,342.2,0.00,-0.9,7.9,"17:39:04",1
"17/02/24","17:50",0.0,5.2,64.9,1012.1,336.9,2.5,4.0,331.5,0.00,-0.8,7.8,"17:47:44",1
"17/02/24","18:00",0.0,5.0,67.0,1011.6,337.7,2.3,3.7,331.8,0.00,-0.6,7.6,"17:53:36",1
"17/02/24","18:10",0.0,4.6,68.9,1012.1,340.7,2.1,3.4,343.1,0.00,-0.6,7.5,"18:02:48",1
"17/02/24","18:20",0.0,4.1,71.1,1012.1,335.3,2.0,3.3,348.5,0.00,-0.6,7.4,"18:10:32",1
"17/02/24","18:30",0.0,3.5,73.4,1011.6,331.0,2.5,4.2,344.9,0.00,-0.8,7.4,"18:23:04",1
"17/02/24","18:40",0.0,3.2,75.4,1012.1,327.5,2.5,3.6,330.4,0.00,-0.7,7.2,"18:36:56",1
"17/02/24","18:50",0.0,2.8,77.2,1012.1,323.8,2.2,3.3,333.6,0.00,-0.8,7.1,"18:40:02",1
"17/02/24","19:00",0.0,2.5,78.8,1012.3,316.9,2.0,2.9,328.9,0.00,-0.8,7.1,"18:50:08",1
"17/02/24","19:10",0.0,2.1,80.5,1012.6,291.8,1.2,1.7,302.8,0.00,-0.9,6.9,"19:08:26",1
"17/02/24","19:20",0.0,1.8,81.9,1012.1,300.2,2.0,2.5,309.2,0.00,-0.9,6.9,"19:17:44",1
"17/02/24","19:30",0.0,1.8,83.3,1011.9,295.6,2.3,3.5,313.3,0.00,-0.7,6.9,"19:21:04",1
"17/02/24","19:40",0.0,1.7,84.3,1012.3,284.1,2.1,3.1,296.0,0.00,-0.6,6.9,"19:39:44",1
"17/02/24","19:50",0.0,1.7,84.7,1012.1,285.2,2.3,3.1,296.2,0.00,-0.6,6.7,"19:44:44",1
"17/02/24","20:00",0.0,1.8,85.0,1012.1,292.7,2.5,4.4,322.6,0.00,-0.4,6.5,"19:59:56",1
"17/02/24","20:10",0.0,1.7,85.1,1012.3,303.0,2.3,4.3,327.7,0.00,-0.5,6.5,"20:09:10",1
"17/02/24","20:20",0.0,1.6,85.3,1012.1,310.7,2.3,3.4,301.4,0.00,-0.6,6.4,"20:12:08",1
"17/02/24","20:30",0.0,1.6,85.3,1012.1,311.1,2.5,4.2,330.4,0.00,-0.6,6.3,"20:20:18",1
"17/02/24","20:40",0.0,1.5,85.6,1011.9,288.9,2.5,3.6,303.2,0.00,-0.6,6.3,"20:33:04",1
"17/02/24","20:50",0.0,1.4,85.8,1012.1,285.5,2.2,2.9,300.6,0.00,-0.7,6.2,"20:42:16",1
"17/02/24","21:00",0.0,1.1,86.4,1012.3,294.1,2.5,3.3,307.1,0.00,-0.9,6.3,"20:57:06",1
"17/02/24","21:10",0.0,1.0,87.5,1012.6,296.3,2.8,4.4,318.4,0.00,-0.8,5.9,"21:09:06",1
"17/02/24","21:20",0.0,1.0,87.6,1012.6,291.3,2.6,4.2,330.6,0.00,-0.8,5.9,"21:10:48",1
"17/02/24","21:30",0.0,1.1,88.2,1012.6,319.1,3.9,4.7,321.9,0.00,-0.6,5.9,"21:25:30",1
"17/02/24","21:40",0.0,1.0,88.1,1012.6,297.4,2.8,5.4,318.4,0.00,-0.7,5.8,"21:30:32",1
"17/02/24","21:50",0.0,0.8,88.3,1013.0,296.8,2.8,4.7,320.0,0.00,-0.9,5.8,"21:43:16",1
"17/02/24","22:00",0.0,0.7,89.1,1012.6,310.9,3.2,4.4,317.6,0.00,-0.8,5.8,"21:57:46",1
"17/02/24","22:10",0.0,0.7,89.3,1012.6,297.2,2.7,4.1,310.3,0.00,-0.8,5.7,"22:00:16",1
"17/02/24","22:20",0.0,0.6,89.5,1012.8,288.1,2.1,3.3,321.4,0.00,-0.9,5.7,"22:16:08",1
"17/02/24","22:30",0.0,0.5,89.7,1012.6,301.2,1.8,2.8,311.7,0.00,-1.0,5.7,"22:24:00",1
"17/02/24","22:40",0.0,0.3,90.1,1012.8,309.5,1.8,2.6,325.4,0.00,-1.1,5.5,"22:38:40",1
"17/02/24","22:50",0.0,0.2,90.4,1012.3,323.3,1.3,2.4,327.3,0.00,-1.1,5.4,"22:41:04",1
"17/02/24","23:00",0.0,-0.2,90.4,1012.8,298.8,1.2,2.0,323.7,0.00,-1.5,5.4,"22:59:36",1
"17/02/24","23:10",0.0,-0.6,91.4,1012.6,314.6,1.6,2.4,332.4,0.00,-1.8,5.3,"23:09:04",1
"17/02/24","23:20",0.0,-0.9,92.1,1012.6,294.8,0.8,1.9,346.1,0.00,-2.0,5.4,"23:12:24",1
"17/02/24","23:30",0.0,-1.0,93.3,1012.6,322.2,1.2,1.6,332.1,0.00,-1.9,5.1,"23:24:08",1
"17/02/24","23:40",0.0,-0.9,94.1,1012.6,318.2,1.5,1.8,326.1,0.00,-1.7,5.2,"23:35:28",1
"17/02/24","23:50",0.0,-0.9,94.7,1012.1,294.3,0.7,1.4,320.2,0.00,-1.6,5.1,"23:40:16",1
"17/02/24","24:00",0.0,-0.8,95.2,1012.1,297.3,1.0,1.3,337.8,0.00,-1.4,5.1,"23:54:16",1
